Snowfall_Accumulation
0.0 0.0 0.0 0.0 0.0 0.0 0.0 0.0 0.0 0.0 0.0 0.0 0.0 0.0 0.0 0.0 0.0 0.0 0.0 0.0 0.0 0.0 0.0 0.0 0.0 0.0 0.0 0.0 0.0 0.0 0.0 0.0 0.0 0.1 0.0 0.1 0.0 0.0 0.0 0.0 0.0 0.0 0.1 0.2 0.3 0.8 0.0 0.0 0.0 0.0 0.0 0.0 0.0 0.0
0.0 0.0 0.0 0.0 0.0 0.0 0.0 0.0 0.0 0.0 0.0 0.0 0.0 0.0 0.0 0.0 0.0 0.0 0.0 0.0 0.0 0.0 0.0 0.0 0.0 0.0 0.0 0.0 0.0 0.0 0.0 0.0 0.0 0.2 0.1 0.0 0.0 0.0 0.0 0.0 0.0 0.0 0.0 0.0 0.0 0.0 0.0 0.0 0.0 0.0 0.0 0.0 0.0 0.0
0.0 0.0 0.0 0.0 0.0 0.0 0.0 0.0 0.0 0.0 0.0 0.0 0.0 0.0 0.0 0.0 0.0 0.0 0.0 0.0 0.0 0.2 0.0 0.0 0.0 0.0 0.0 0.0 0.0 0.0 0.0 0.0 0.0 0.0 0.1 0.1 0.0 0.0 0.0 0.0 0.0 0.0 0.0 0.0 0.0 0.0 0.0 0.0 0.0 0.0 0.0 0.0 0.0 0.0
0.0 0.0 0.0 0.0 0.0 0.0 0.0 0.0 0.0 0.0 0.0 0.0 0.0 0.0 0.0 0.0 0.0 0.0 0.0 0.0 0.0 0.2 1.5 0.0 0.0 0.0 0.0 0.0 0.0 0.0 0.0 0.0 0.0 0.4 0.5 0.2 0.2 0.0 0.0 0.0 0.0 0.0 0.0 0.0 0.0 0.0 0.0 0.0 0.0 0.0 0.0 0.0 0.0 0.0
0.0 0.0 0.0 0.0 0.0 0.0 0.0 0.0 0.0 0.0 0.0 0.0 0.0 0.0 0.0 0.0 0.0 0.0 0.0 0.0 0.0 0.3 2.2 0.7 0.0 0.0 0.0 0.0 0.0 0.0 0.0 0.0 0.2 0.7 1.3 0.7 0.0 0.0 0.0 0.0 0.0 0.0 0.0 0.0 0.0 0.0 0.0 0.0 0.0 0.0 0.0 0.0 0.0 0.0
0.0 0.0 0.0 0.0 0.0 0.0 0.0 0.0 0.0 0.0 0.0 0.0 0.0 0.0 0.0 0.0 0.0 0.0 0.0 0.0 0.0 0.0 2.6 3.1 0.0 0.0 0.0 0.0 0.0 0.0 0.0 0.0 0.8 0.3 1.6 0.0 0.0 0.0 0.9 0.1 0.0 0.0 0.0 0.0 0.0 0.0 0.0 0.0 0.0 0.0 0.0 0.0 0.0 0.0
0.0 0.0 0.0 0.0 0.0 0.0 0.0 0.0 0.0 0.0 0.0 0.0 0.0 0.0 0.0 0.0 0.0 0.1 0.1 0.0 0.0 0.0 2.6 7.8 4.1 0.1 0.0 0.0 0.0 0.0 0.0 0.0 1.2 1.1 0.0 0.8 0.2 1.1 1.0 0.0 0.0 0.0 0.0 0.0 0.0 0.0 0.0 0.0 0.0 0.0 0.0 0.0 0.0 0.0
0.0 0.0 0.0 0.0 0.0 0.0 0.0 0.0 0.0 0.0 0.0 0.0 0.0 0.0 0.0 0.0 0.0 0.0 0.0 0.0 0.0 1.5 4.2 11.3 8.8 4.6 0.0 0.0 0.1 0.0 0.0 0.0 1.9 0.7 0.0 0.1 0.0 0.7 1.2 0.0 0.0 0.0 0.0 0.0 0.0 0.0 0.0 0.0 0.0 0.0 0.0 0.0 0.0 0.0
0.0 0.0 0.0 0.0 0.0 0.0 0.0 0.0 0.0 0.0 0.0 0.0 0.0 0.0 0.0 0.0 0.0 0.0 0.0 0.0 0.0 0.1 7.2 6.3 10.1 6.4 0.2 0.1 0.1 0.1 0.0 1.6 0.2 0.9 0.0 0.0 0.4 2.0 0.0 0.0 0.1 0.0 0.0 0.0 0.0 0.0 0.0 0.0 0.0 0.0 0.0 0.0 0.0 0.0
0.0 0.0 0.0 0.0 0.0 0.0 0.0 0.0 0.0 0.0 0.0 0.0 0.0 0.0 0.2 0.0 0.0 0.0 0.0 1.4 2.7 2.4 3.0 6.6 2.6 2.8 1.1 2.0 0.7 0.8 0.1 1.9 4.8 0.0 0.0 0.6 0.1 0.0 0.0 0.2 0.1 0.0 0.0 0.0 2.9 1.7 0.5 1.1 0.2 0.1 0.0 0.0 0.0 0.0
0.0 0.0 0.0 0.0 0.0 0.0 0.0 0.0 0.0 0.0 0.0 0.0 0.0 0.3 0.0 0.0 0.0 0.0 4.3 4.0 1.8 2.6 2.4 2.4 2.2 2.3 0.0 3.2 1.2 0.3 2.5 1.7 6.9 1.9 0.9 1.5 2.6 0.6 0.0 0.2 0.0 0.0 0.1 0.0 0.0 0.1 0.9 1.5 2.0 1.0 0.4 1.5 0.9 1.5
0.0 0.0 0.0 0.0 0.0 0.0 0.0 0.0 0.0 0.0 0.0 0.0 0.0 0.0 0.0 1.8 4.8 7.4 6.9 1.0 1.1 1.7 0.6 0.9 0.5 0.2 0.5 0.0 1.7 1.0 2.5 2.3 2.8 1.4 3.9 3.4 1.5 0.9 1.2 0.4 0.2 0.1 0.0 0.1 0.1 1.1 0.5 0.5 0.8 0.8 1.9 2.4 2.2 2.2
0.0 0.0 0.0 0.0 0.0 0.0 0.0 0.0 0.0 0.0 0.0 0.0 0.1 2.7 3.5 5.1 8.4 5.7 4.9 1.5 0.5 0.3 0.4 0.6 0.9 0.1 0.0 0.1 1.3 2.0 2.2 1.0 2.1 4.9 3.6 1.3 0.3 0.0 0.3 1.1 1.0 0.7 0.1 0.5 0.9 0.0 0.3 0.3 0.3 0.3 0.2 0.1 0.0 0.0
0.0 0.0 0.0 0.0 0.0 0.0 0.0 0.0 0.0 0.0 0.0 0.1 4.4 5.4 4.2 3.7 3.3 2.2 1.3 1.0 0.0 0.2 0.0 0.0 0.6 0.9 0.1 1.2 1.0 2.4 0.3 1.8 6.2 3.2 2.5 0.3 0.4 0.3 0.1 0.2 0.4 0.5 0.7 1.0 2.8 2.8 1.4 0.8 0.3 0.1 0.0 0.1 0.0 0.0
0.0 0.0 0.0 0.0 0.0 0.0 0.0 0.0 0.0 0.0 0.0 4.7 5.1 4.0 1.9 1.3 0.6 0.3 0.1 0.4 0.0 0.0 0.0 0.0 0.1 0.3 1.0 1.8 1.1 1.6 2.0 4.4 3.3 3.1 1.0 0.4 0.4 0.6 0.4 0.2 0.2 0.4 0.5 1.2 1.2 2.1 3.2 1.9 0.7 0.0 0.0 0.0 0.3 0.3
0.0 0.0 0.0 0.0 0.0 0.0 0.0 0.0 0.0 0.0 0.6 7.1 6.8 3.4 0.7 0.5 0.3 0.1 0.0 0.1 0.0 0.0 0.1 0.2 0.5 1.0 0.8 2.2 1.2 2.0 3.0 3.8 2.2 1.0 0.5 0.3 0.6 0.0 0.2 0.2 0.0 0.0 0.0 0.1 1.0 1.4 2.0 1.9 1.3 0.7 0.5 0.1 0.2 0.9
0.0 0.0 0.0 0.0 0.0 0.0 0.0 0.0 0.0 10.4 10.8 8.7 1.8 0.4 0.6 0.3 0.3 0.2 0.0 0.0 0.0 0.2 1.0 1.6 2.3 0.7 0.4 1.2 0.7 0.4 1.4 1.1 0.6 0.0 0.1 0.0 0.1 0.0 0.0 0.0 0.0 0.0 0.0 0.0 0.5 0.9 1.6 2.2 2.4 1.4 1.8 1.5 1.2 0.8
0.0 0.0 0.0 0.0 0.0 0.0 0.0 0.0 8.2 13.2 12.9 2.9 0.0 0.0 0.0 0.0 0.2 0.2 0.0 0.0 0.0 0.4 1.4 4.5 2.5 1.6 0.3 0.2 0.0 0.1 0.0 0.0 0.1 0.0 0.1 0.0 0.0 0.0 0.0 0.0 0.0 0.1 0.7 1.7 1.5 1.6 1.1 1.7 1.6 1.3 1.0 0.8 0.8 1.0
0.0 0.0 0.0 0.0 0.0 0.0 15.1 17.4 10.1 10.6 2.1 0.1 0.0 0.0 0.0 0.0 0.0 0.0 0.0 0.0 0.0 0.0 0.3 2.9 2.7 0.5 0.0 0.0 0.0 0.0 0.0 0.0 0.0 0.0 0.0 0.0 0.0 0.0 0.0 0.3 0.3 0.7 1.8 1.6 0.4 0.4 0.4 0.3 0.7 0.4 1.0 0.7 1.0 0.8
0.0 0.0 0.0 0.0 0.0 7.6 24.1 20.7 9.3 3.9 1.1 0.0 0.0 0.0 0.0 0.0 0.0 0.0 0.0 0.3 0.5 2.5 3.5 3.2 0.3 0.2 0.1 0.3 0.3 0.1 0.0 0.0 0.0 0.0 0.0 0.0 0.0 0.0 0.0 0.0 0.1 0.3 0.7 0.6 0.5 0.7 0.5 0.7 0.5 0.2 0.6 0.5 1.0 1.1
0.0 0.0 0.0 0.0 1.9 11.0 18.1 14.7 7.1 1.4 0.2 0.0 0.0 0.0 0.0 0.0 0.0 0.1 0.1 1.2 4.1 6.5 3.6 1.2 0.2 0.1 0.0 0.5 0.2 0.0 0.0 0.0 0.0 0.0 0.0 0.0 0.0 0.0 0.0 0.0 0.0 0.0 0.0 0.3 0.2 0.1 0.5 0.3 0.7 0.5 0.3 0.8 0.7 1.0
0.4 0.0 6.5 4.0 25.6 26.2 16.1 8.4 3.5 1.0 0.3 0.1 0.0 0.0 0.2 0.2 0.1 0.1 0.2 4.3 6.7 2.5 1.5 1.1 1.0 0.6 0.2 0.0 0.8 0.9 0.4 0.0 0.0 0.0 0.0 0.0 0.0 0.0 0.0 0.0 0.0 0.0 0.0 0.0 0.0 0.1 0.0 0.1 0.1 0.5 0.5 1.1 0.9 0.4
0.3 1.3 21.0 24.6 31.1 25.4 17.2 4.8 3.2 1.9 0.8 1.2 0.9 0.9 1.3 0.6 0.2 0.3 2.3 2.2 1.6 1.2 1.0 0.8 1.0 2.2 2.3 1.8 1.5 1.1 0.6 0.1 0.0 0.2 0.1 0.0 0.0 0.0 0.0 0.0 0.0 0.0 0.1 0.0 0.0 0.0 0.0 0.0 0.0 0.0 0.0 0.0 0.7 0.7
0.0 24.0 31.8 32.0 21.7 19.9 12.5 10.2 5.9 2.4 2.9 2.2 2.0 1.5 0.7 0.0 1.4 2.3 1.6 0.6 0.4 0.4 1.3 1.6 1.3 1.1 0.6 1.5 1.8 2.2 2.3 1.4 0.4 0.0 0.7 0.3 0.1 0.0 0.0 0.0 0.0 0.0 0.0 0.0 0.0 0.0 0.0 0.0 0.0 0.0 0.0 0.0 0.0 0.0
35.8 41.9 29.0 30.5 16.1 8.0 4.0 3.5 2.5 1.6 1.5 1.3 0.6 0.2 0.5 0.5 1.4 1.4 0.1 0.0 0.1 0.2 0.6 1.4 1.5 1.4 1.4 1.0 1.4 1.3 1.2 1.5 2.5 2.7 0.1 1.5 0.8 0.2 0.0 0.0 0.3 0.0 0.0 0.2 0.1 0.1 0.0 0.0 0.0 0.0 0.0 0.1 0.3 0.4
40.5 24.3 12.9 4.6 2.6 0.4 0.2 0.1 0.3 0.1 0.1 0.3 0.4 0.1 0.1 0.4 1.7 0.6 0.0 0.0 0.1 0.3 0.4 0.6 1.2 1.2 0.9 0.8 1.0 1.8 1.7 1.5 1.3 2.4 1.4 2.0 1.6 2.1 2.1 0.2 1.5 0.7 0.2 0.1 0.9 0.8 0.3 0.1 0.1 0.0 0.0 0.1 0.4 0.5
30.0 16.6 3.8 0.4 0.1 0.1 0.0 0.0 0.1 0.0 0.3 0.6 0.4 0.3 0.2 1.5 0.2 0.0 0.0 0.0 0.0 0.4 0.7 1.1 2.2 1.9 1.3 1.4 1.3 1.8 2.0 2.2 2.0 1.5 2.0 4.3 4.0 2.5 1.2 2.1 2.0 1.2 0.9 0.6 1.3 1.0 1.2 1.0 0.6 0.7 0.6 0.7 0.5 1.1
8.4 1.8 0.0 0.4 0.1 0.0 0.2 0.4 0.7 0.6 0.5 0.0 0.4 0.4 0.3 0.1 0.0 0.0 0.0 0.0 0.0 0.0 0.8 1.3 1.8 2.4 2.2 1.9 1.9 2.6 2.8 3.1 3.4 3.2 4.5 5.2 5.4 5.0 3.9 3.1 2.5 2.7 3.1 2.1 1.8 2.4 2.1 1.7 1.4 2.1 1.7 1.5 1.3 1.1
2.3 0.8 0.6 0.8 0.3 0.2 0.3 0.3 0.3 0.1 0.0 0.0 0.1 0.0 0.0 0.0 0.0 0.0 0.0 0.0 0.0 0.8 1.0 1.5 1.9 2.0 2.8 2.9 2.8 3.5 3.5 3.6 3.1 2.5 2.0 2.4 4.3 6.0 5.6 4.8 5.5 5.6 3.7 3.8 2.6 3.0 3.1 4.0 3.6 3.6 3.8 3.7 3.4 3.4
0.4 0.0 0.0 0.1 0.3 0.3 0.3 0.1 0.0 0.0 0.0 0.0 0.0 0.0 0.0 0.0 0.0 0.0 0.1 0.0 0.0 1.4 1.8 2.4 2.3 2.4 3.5 3.4 3.5 3.3 4.1 4.1 3.8 2.2 2.1 2.2 2.9 4.1 5.8 5.8 5.9 6.4 6.0 5.6 6.4 6.8 5.1 6.1 6.3 6.4 5.7 5.5 5.4 4.8
0.1 0.0 0.1 0.1 0.1 0.3 0.2 0.3 0.2 0.2 0.0 0.1 0.1 0.1 0.1 0.1 0.0 0.0 0.3 0.6 1.4 2.0 2.7 3.4 3.8 4.5 4.6 5.0 4.9 4.4 4.5 5.2 5.3 5.5 4.4 4.8 4.8 4.8 5.5 6.3 5.9 6.5 6.4 5.9 5.2 4.9 5.0 4.7 4.2 4.4 4.3 4.3 3.9 3.6
0.3 0.1 0.0 0.1 0.1 0.1 0.5 0.4 0.2 0.1 0.1 0.1 0.2 0.1 0.1 0.1 0.1 0.0 0.5 0.8 1.8 2.3 2.7 3.4 3.9 5.0 5.6 5.4 5.4 5.3 4.2 4.8 4.8 6.0 5.1 4.5 4.5 3.9 5.1 5.6 6.2 5.7 6.2 6.4 5.8 6.3 6.2 6.2 6.3 5.8 5.7 5.7 5.3 4.8
2.0 1.1 0.7 0.5 1.0 1.1 0.4 0.1 0.3 0.3 0.3 0.1 0.1 0.0 0.0 0.1 0.0 0.4 0.6 1.0 2.0 2.5 2.7 4.1 4.7 4.7 4.5 4.4 4.9 5.2 5.2 5.1 6.0 5.7 5.7 5.9 5.7 6.3 5.5 5.5 5.7 6.4 6.5 6.7 7.0 7.6 7.9 7.3 7.0 6.6 6.1 5.8 5.3 5.0